Location: Newark
(25.6108°S, 54.5803°W)
Time: 05:11:12
(UTC+00:00)

deb Explorer IX - Pass Details

Date: 03 November 2020
Orbit: 538 x 1104 km, 38.8° (Epoch: 29 November)

Event Time Altitude Azimuth Distance (km) Brightness Sun altitude
Rises 18:54:21 0° 270° (W) 3,739 ? 39.5°
Reaches altitude 10° 18:57:31 10° 260° (W) 2,708 ? 38.8°
Maximum altitude 19:03:11 31° 200° (SSW) 1,493 ? 37.5°
Drops below altitude 10° 19:08:10 10° 137° (SE) 2,359 ? 36.4°
Sets 19:10:44 0° 127° (SE) 3,191 ? 35.8°
